Time,TemperatureF,DewpointF,PressureIn,WindDirection,WindDirectionDegrees,WindSpeedMPH,WindSpeedGustMPH,Humidity,HourlyPrecipIn,Conditions,Clouds,dailyrainin,SoftwareType,DateUTC
2013-03-05 00:00:00,30.0,24.0,30.14,WSW,247,2.0,3.0,78,0.00,CLR,SKC,0.00,WeatherDisplay:10.37,2013-03-05 05:00:00,
2013-03-05 00:05:00,29.0,23.6,30.14,WSW,247,0.0,0.5,80,0.00,CLR,SKC,0.00,WeatherDisplay:10.37,2013-03-05 05:05:00,
2013-03-05 00:10:00,29.0,23.9,30.15,WSW,247,2.3,2.3,81,0.00,CLR,SKC,0.00,WeatherDisplay:10.37,2013-03-05 05:10:00,
2013-03-05 00:15:00,29.0,23.6,30.15,WSW,247,3.5,3.5,80,0.00,CLR,SKC,0.00,WeatherDisplay:10.37,2013-03-05 05:15:00,
2013-03-05 00:20:00,30.0,24.0,30.15,WSW,247,4.0,4.0,78,0.00,CLR,SKC,0.00,WeatherDisplay:10.37,2013-03-05 05:20:00,
2013-03-05 00:25:00,31.0,24.3,30.15,WSW,247,4.0,4.0,76,0.00,CLR,SKC,0.00,WeatherDisplay:10.37,2013-03-05 05:25:00,
2013-03-05 00:30:00,32.0,24.3,30.15,WSW,247,2.3,2.3,73,0.00,CLR,SKC,0.00,WeatherDisplay:10.37,2013-03-05 05:30:00,
2013-03-05 00:35:00,33.0,24.6,30.15,WSW,247,3.5,3.5,71,0.00,CLR,SKC,0.00,WeatherDisplay:10.37,2013-03-05 05:35:00,
2013-03-05 00:40:00,33.0,23.9,30.14,WSW,247,3.5,3.5,69,0.00,CLR,SKC,0.00,WeatherDisplay:10.37,2013-03-05 05:40:00,
2013-03-05 00:45:00,34.0,24.2,30.14,WSW,247,3.5,3.5,67,0.00,CLR,SKC,0.00,WeatherDisplay:10.37,2013-03-05 05:45:00,
2013-03-05 00:50:00,34.0,24.2,30.13,WSW,247,0.0,0.0,67,0.00,CLR,SKC,0.00,WeatherDisplay:10.37,2013-03-05 05:50:00,
2013-03-05 00:55:00,34.0,23.8,30.13,WSW,247,0.0,0.0,66,0.00,CLR,SKC,0.00,WeatherDisplay:10.37,2013-03-05 05:55:00,
2013-03-05 01:00:00,34.0,23.5,30.12,WSW,247,0.0,0.0,65,0.00,CLR,SKC,0.00,WeatherDisplay:10.37,2013-03-05 06:00:00,
2013-03-05 01:05:00,34.0,23.1,30.12,WSW,247,0.0,0.0,64,0.00,CLR,SKC,0.00,WeatherDisplay:10.37,2013-03-05 06:05:00,
2013-03-05 01:10:00,35.0,23.7,30.12,WSW,247,2.3,2.3,63,0.00,CLR,SKC,0.00,WeatherDisplay:10.37,2013-03-05 06:10:00,
2013-03-05 01:15:00,35.0,23.7,30.12,WSW,247,3.5,3.5,63,0.00,CLR,SKC,0.00,WeatherDisplay:10.37,2013-03-05 06:15:00,
2013-03-05 01:21:00,35.0,24.0,30.13,WSW,247,1.0,1.0,64,0.00,CLR,SKC,0.00,WeatherDisplay:10.37,2013-03-05 06:21:00,
2013-03-05 01:26:00,35.0,23.7,30.13,WSW,247,0.0,0.0,63,0.00,CLR,SKC,0.00,WeatherDisplay:10.37,2013-03-05 06:26:00,
2013-03-05 01:31:00,35.0,24.4,30.13,WSW,247,3.5,3.5,65,0.00,CLR,SKC,0.00,WeatherDisplay:10.37,2013-03-05 06:31:00,
2013-03-05 01:36:00,34.0,23.1,30.13,WSW,247,0.0,0.0,64,0.00,CLR,SKC,0.00,WeatherDisplay:10.37,2013-03-05 06:36:00,
2013-03-05 01:41:00,34.0,22.7,30.13,WSW,247,0.0,0.0,63,0.00,CLR,SKC,0.00,WeatherDisplay:10.37,2013-03-05 06:41:00,
2013-03-05 01:46:00,34.0,22.7,30.13,WSW,247,0.0,0.0,63,0.00,CLR,SKC,0.00,WeatherDisplay:10.37,2013-03-05 06:46:00,
2013-03-05 01:51:00,35.0,24.0,30.13,WSW,247,0.0,0.0,64,0.00,CLR,SKC,0.00,WeatherDisplay:10.37,2013-03-05 06:51:00,
2013-03-05 01:56:00,35.0,24.0,30.13,WSW,247,0.0,0.0,64,0.00,CLR,SKC,0.00,WeatherDisplay:10.37,2013-03-05 06:56:00,
2013-03-05 02:01:00,35.0,23.7,30.13,WSW,247,0.0,0.0,63,0.00,CLR,SKC,0.00,WeatherDisplay:10.37,2013-03-05 07:01:00,
2013-03-05 02:06:00,35.0,22.9,30.13,WSW,247,1.0,1.0,61,0.00,CLR,SKC,0.00,WeatherDisplay:10.37,2013-03-05 07:06:00,
2013-03-05 02:11:00,35.0,23.3,30.11,WSW,247,3.0,3.0,62,0.00,CLR,SKC,0.00,WeatherDisplay:10.37,2013-03-05 07:11:00,
2013-03-05 02:16:00,35.0,23.3,30.11,WSW,247,2.3,2.3,62,0.00,CLR,SKC,0.00,WeatherDisplay:10.37,2013-03-05 07:16:00,
2013-03-05 02:21:00,35.0,23.7,30.12,WSW,247,2.3,0.0,63,0.00,CLR,SKC,0.00,WeatherDisplay:10.37,2013-03-05 07:21:00,
2013-03-05 02:26:00,35.0,24.4,30.12,WSW,247,2.3,2.3,65,0.00,CLR,SKC,0.00,WeatherDisplay:10.37,2013-03-05 07:26:00,
2013-03-05 02:31:00,35.0,24.4,30.11,WSW,247,0.0,0.4,65,0.00,CLR,SKC,0.00,WeatherDisplay:10.37,2013-03-05 07:31:00,
2013-03-05 02:36:00,35.0,24.4,30.11,WSW,247,0.0,0.0,65,0.00,CLR,SKC,0.00,WeatherDisplay:10.37,2013-03-05 07:36:00,
2013-03-05 02:41:00,35.0,24.4,30.12,WSW,247,0.0,0.0,65,0.00,CLR,SKC,0.00,WeatherDisplay:10.37,2013-03-05 07:41:00,
2013-03-05 02:46:00,36.0,23.8,30.12,WSW,247,0.0,0.0,61,0.00,CLR,SKC,0.00,WeatherDisplay:10.37,2013-03-05 07:46:00,
2013-03-05 02:51:00,36.0,23.0,30.11,WSW,247,0.0,0.0,59,0.00,CLR,SKC,0.00,WeatherDisplay:10.37,2013-03-05 07:51:00,
2013-03-05 02:56:00,36.0,23.0,30.11,WSW,247,0.0,0.0,59,0.00,CLR,SKC,0.00,WeatherDisplay:10.37,2013-03-05 07:56:00,
2013-03-05 03:01:00,37.0,23.2,30.11,WSW,247,0.0,0.0,57,0.00,CLR,SKC,0.00,WeatherDisplay:10.37,2013-03-05 08:01:00,
2013-03-05 03:06:00,37.0,22.7,30.11,WSW,247,0.0,0.0,56,0.00,CLR,SKC,0.00,WeatherDisplay:10.37,2013-03-05 08:06:00,
2013-03-05 03:11:00,37.0,22.7,30.11,WSW,247,0.0,0.0,56,0.00,CLR,SKC,0.00,WeatherDisplay:10.37,2013-03-05 08:11:00,
2013-03-05 03:16:00,37.0,22.7,30.11,WSW,247,0.0,0.0,56,0.00,CLR,SKC,0.00,WeatherDisplay:10.37,2013-03-05 08:16:00,
2013-03-05 03:21:00,37.0,22.7,30.11,WSW,247,2.3,2.3,56,0.00,CLR,SKC,0.00,WeatherDisplay:10.37,2013-03-05 08:21:00,
2013-03-05 03:26:00,37.0,25.6,30.11,WSW,247,0.0,0.0,63,0.00,CLR,SKC,0.00,WeatherDisplay:10.37,2013-03-05 08:26:00,
2013-03-05 03:31:00,37.0,25.6,30.11,WSW,247,0.0,0.0,63,0.00,CLR,SKC,0.00,WeatherDisplay:10.37,2013-03-05 08:31:00,
2013-03-05 03:36:00,37.0,25.9,30.11,WSW,247,0.0,0.0,64,0.00,CLR,SKC,0.00,WeatherDisplay:10.37,2013-03-05 08:36:00,
2013-03-05 03:41:00,37.0,25.2,30.11,WSW,247,0.0,0.0,62,0.00,CLR,SKC,0.00,WeatherDisplay:10.37,2013-03-05 08:41:00,
2013-03-05 03:46:00,37.0,26.3,30.11,WSW,247,0.0,0.0,65,0.00,CLR,SKC,0.00,WeatherDisplay:10.37,2013-03-05 08:46:00,
2013-03-05 03:51:00,37.0,27.1,30.11,WSW,247,0.0,0.0,67,0.00,CLR,SKC,0.00,WeatherDisplay:10.37,2013-03-05 08:51:00,
2013-03-05 03:56:00,37.0,25.6,30.11,WSW,247,0.0,0.0,63,0.00,CLR,SKC,0.00,WeatherDisplay:10.37,2013-03-05 08:56:00,
2013-03-05 04:01:00,37.0,24.8,30.11,WSW,247,0.0,0.0,61,0.00,CLR,SKC,0.00,WeatherDisplay:10.37,2013-03-05 09:01:00,
2013-03-05 04:06:00,37.0,25.2,30.11,WSW,247,0.0,0.0,62,0.00,CLR,SKC,0.00,WeatherDisplay:10.37,2013-03-05 09:06:00,
2013-03-05 04:11:00,37.0,25.2,30.11,WSW,247,0.0,0.0,62,0.00,CLR,SKC,0.00,WeatherDisplay:10.37,2013-03-05 09:11:00,
2013-03-05 04:16:00,37.0,27.1,30.11,WSW,247,3.0,3.0,67,0.00,CLR,SKC,0.00,WeatherDisplay:10.37,2013-03-05 09:16:00,
2013-03-05 04:21:00,37.0,28.5,30.11,WSW,247,3.5,3.5,71,0.00,CLR,SKC,0.00,WeatherDisplay:10.37,2013-03-05 09:21:00,
2013-03-05 04:26:00,38.0,29.8,30.11,WSW,247,0.0,0.0,72,0.00,CLR,SKC,0.00,WeatherDisplay:10.37,2013-03-05 09:26:00,
2013-03-05 04:31:00,37.0,29.5,30.11,WSW,247,0.0,0.0,74,0.00,CLR,SKC,0.00,WeatherDisplay:10.37,2013-03-05 09:31:00,
2013-03-05 04:36:00,38.0,30.1,30.10,WSW,247,0.0,0.0,73,0.00,CLR,SKC,0.00,WeatherDisplay:10.37,2013-03-05 09:36:00,
2013-03-05 04:41:00,37.0,29.5,30.10,WSW,247,2.3,2.3,74,0.00,CLR,SKC,0.00,WeatherDisplay:10.37,2013-03-05 09:41:00,
2013-03-05 04:46:00,38.0,29.8,30.11,WSW,247,0.0,0.0,72,0.00,CLR,SKC,0.00,WeatherDisplay:10.37,2013-03-05 09:46:00,
2013-03-05 04:51:00,37.0,30.5,30.11,WSW,247,3.5,3.5,77,0.00,CLR,SKC,0.00,WeatherDisplay:10.37,2013-03-05 09:51:00,
2013-03-05 04:56:00,38.0,30.8,30.11,WSW,247,0.0,0.0,75,0.00,CLR,SKC,0.00,WeatherDisplay:10.37,2013-03-05 09:56:00,
2013-03-05 05:01:00,37.0,30.5,30.11,WSW,247,0.0,0.0,77,0.00,CLR,SKC,0.00,WeatherDisplay:10.37,2013-03-05 10:01:00,
2013-03-05 05:06:00,37.0,30.5,30.11,WSW,247,0.0,0.0,77,0.00,CLR,SKC,0.00,WeatherDisplay:10.37,2013-03-05 10:06:00,
2013-03-05 05:11:00,37.0,28.8,30.11,WSW,247,0.0,0.0,72,0.00,CLR,SKC,0.00,WeatherDisplay:10.37,2013-03-05 10:11:00,
2013-03-05 05:16:00,37.0,28.8,30.11,WSW,247,0.0,0.0,72,0.00,CLR,SKC,0.00,WeatherDisplay:10.37,2013-03-05 10:16:00,
2013-03-05 05:21:00,37.0,28.5,30.11,WSW,247,0.0,0.0,71,0.00,CLR,SKC,0.00,WeatherDisplay:10.37,2013-03-05 10:21:00,
2013-03-05 05:26:00,37.0,29.5,30.12,WSW,247,2.3,2.3,74,0.00,CLR,SKC,0.00,WeatherDisplay:10.37,2013-03-05 10:26:00,
2013-03-05 05:31:00,37.0,28.8,30.12,WSW,247,0.0,0.0,72,0.00,CLR,SKC,0.00,WeatherDisplay:10.37,2013-03-05 10:31:00,
2013-03-05 05:36:00,37.0,28.1,30.13,WSW,247,0.0,0.0,70,0.00,CLR,SKC,0.00,WeatherDisplay:10.37,2013-03-05 10:36:00,
2013-03-05 05:41:00,37.0,28.8,30.13,WSW,247,3.5,3.5,72,0.00,CLR,SKC,0.00,WeatherDisplay:10.37,2013-03-05 10:41:00,
2013-03-05 05:46:00,37.0,29.5,30.13,WSW,247,3.5,3.5,74,0.00,CLR,SKC,0.00,WeatherDisplay:10.37,2013-03-05 10:46:00,
2013-03-05 05:51:00,37.0,29.8,30.13,WSW,247,0.0,0.0,75,0.00,CLR,SKC,0.00,WeatherDisplay:10.37,2013-03-05 10:51:00,
2013-03-05 05:56:00,37.0,30.1,30.12,WSW,247,0.0,0.0,76,0.00,CLR,SKC,0.00,WeatherDisplay:10.37,2013-03-05 10:56:00,
2013-03-05 06:01:00,37.0,30.8,30.12,WSW,247,0.0,0.0,78,0.00,CLR,SKC,0.00,WeatherDisplay:10.37,2013-03-05 11:01:00,
2013-03-05 06:06:00,37.0,29.8,30.12,WSW,247,0.0,0.0,75,0.00,CLR,SKC,0.00,WeatherDisplay:10.37,2013-03-05 11:06:00,
2013-03-05 06:11:00,37.0,29.8,30.12,WSW,247,0.0,0.0,75,0.00,CLR,SKC,0.00,WeatherDisplay:10.37,2013-03-05 11:11:00,
2013-03-05 06:16:00,37.0,29.1,30.12,WSW,247,0.0,0.0,73,0.00,CLR,SKC,0.00,WeatherDisplay:10.37,2013-03-05 11:16:00,
2013-03-05 06:21:00,36.0,27.8,30.12,WSW,247,0.0,0.0,72,0.00,CLR,SKC,0.00,WeatherDisplay:10.37,2013-03-05 11:21:00,
2013-03-05 06:26:00,36.0,28.8,30.11,WSW,247,0.0,0.0,75,0.00,CLR,SKC,0.00,WeatherDisplay:10.37,2013-03-05 11:26:00,
2013-03-05 06:31:00,36.0,29.2,30.11,WSW,247,0.0,0.0,76,0.00,CLR,SKC,0.00,WeatherDisplay:10.37,2013-03-05 11:31:00,
2013-03-05 06:36:00,36.0,28.5,30.12,WSW,247,3.5,3.5,74,0.00,CLR,SKC,0.00,WeatherDisplay:10.37,2013-03-05 11:36:00,
2013-03-05 06:41:00,35.0,27.5,30.12,WSW,247,2.3,2.3,74,0.00,CLR,SKC,0.00,WeatherDisplay:10.37,2013-03-05 11:41:00,
2013-03-05 06:46:00,35.0,27.5,30.13,WSW,247,3.5,3.5,74,0.00,CLR,SKC,0.00,WeatherDisplay:10.37,2013-03-05 11:46:00,
2013-03-05 06:51:00,35.0,27.5,30.13,WSW,247,0.0,0.0,74,0.00,CLR,SKC,0.00,WeatherDisplay:10.37,2013-03-05 11:51:00,
2013-03-05 06:56:00,35.0,27.5,30.11,WSW,247,0.0,0.0,74,0.00,CLR,SKC,0.00,WeatherDisplay:10.37,2013-03-05 11:56:00,
2013-03-05 07:01:00,34.0,24.9,30.11,WSW,247,0.0,0.0,69,0.00,CLR,SKC,0.00,WeatherDisplay:10.37,2013-03-05 12:01:00,
2013-03-05 07:06:00,35.0,25.9,30.11,WSW,247,0.0,0.0,69,0.00,CLR,SKC,0.00,WeatherDisplay:10.37,2013-03-05 12:06:00,
2013-03-05 07:11:00,35.0,25.9,30.11,WSW,247,0.0,0.0,69,0.00,CLR,SKC,0.00,WeatherDisplay:10.37,2013-03-05 12:11:00,
2013-03-05 07:16:00,36.0,26.1,30.11,WSW,247,0.0,0.0,67,0.00,CLR,SKC,0.00,WeatherDisplay:10.37,2013-03-05 12:16:00,
2013-03-05 07:21:00,36.0,27.5,30.11,WSW,247,0.0,0.0,71,0.00,CLR,SKC,0.00,WeatherDisplay:10.37,2013-03-05 12:21:00,
2013-03-05 07:26:00,37.0,27.4,30.10,WSW,247,0.0,0.0,68,0.00,CLR,SKC,0.00,WeatherDisplay:10.37,2013-03-05 12:26:00,
2013-03-05 07:31:00,37.0,27.8,30.10,WSW,247,0.0,0.0,69,0.00,CLR,SKC,0.00,WeatherDisplay:10.37,2013-03-05 12:31:00,
2013-03-05 07:36:00,38.0,27.6,30.09,WSW,247,0.0,0.0,66,0.00,CLR,SKC,0.00,WeatherDisplay:10.37,2013-03-05 12:36:00,
2013-03-05 07:41:00,38.0,27.3,30.09,WSW,247,0.0,0.0,65,0.00,CLR,SKC,0.00,WeatherDisplay:10.37,2013-03-05 12:41:00,
2013-03-05 07:46:00,38.0,26.9,30.09,WSW,247,0.0,0.0,64,0.00,CLR,SKC,0.00,WeatherDisplay:10.37,2013-03-05 12:46:00,
2013-03-05 07:51:00,39.0,27.5,30.09,WSW,247,2.3,2.3,63,0.00,CLR,SKC,0.00,WeatherDisplay:10.37,2013-03-05 12:51:00,
2013-03-05 07:56:00,40.0,27.6,30.09,SSW,202,0.0,0.0,61,0.00,CLR,SKC,0.00,WeatherDisplay:10.37,2013-03-05 12:56:00,
2013-03-05 08:01:00,40.0,26.8,30.09,ESE,112,3.5,3.5,59,0.00,CLR,SKC,0.00,WeatherDisplay:10.37,2013-03-05 13:01:00,
2013-03-05 08:06:00,41.0,27.8,30.08,ESE,112,3.5,3.5,59,0.00,CLR,SKC,0.00,WeatherDisplay:10.37,2013-03-05 13:06:00,
2013-03-05 08:11:00,41.0,27.8,30.08,ESE,112,3.5,3.5,59,0.00,CLR,SKC,0.00,WeatherDisplay:10.37,2013-03-05 13:11:00,
2013-03-05 08:16:00,43.0,27.5,30.07,ESE,112,5.8,5.8,54,0.00,CLR,SKC,0.00,WeatherDisplay:10.37,2013-03-05 13:16:00,
2013-03-05 08:21:00,43.0,27.9,30.07,SE,135,4.6,4.6,55,0.00,CLR,SKC,0.00,WeatherDisplay:10.37,2013-03-05 13:21:00,
2013-03-05 08:26:00,44.0,28.0,30.05,SE,135,9.2,9.2,53,0.00,CLR,SKC,0.00,WeatherDisplay:10.37,2013-03-05 13:26:00,
2013-03-05 08:32:00,44.0,28.0,30.05,ESE,112,5.8,5.8,53,0.00,CLR,SKC,0.00,WeatherDisplay:10.37,2013-03-05 13:32:00,
2013-03-05 08:37:00,45.0,28.9,30.05,ESE,112,4.0,4.0,53,0.00,CLR,SKC,0.00,WeatherDisplay:10.37,2013-03-05 13:37:00,
2013-03-05 08:42:00,45.0,28.9,30.05,ESE,112,3.5,3.5,53,0.00,CLR,SKC,0.00,WeatherDisplay:10.37,2013-03-05 13:42:00,
2013-03-05 08:47:00,46.0,28.9,30.03,ESE,112,4.6,4.6,51,0.00,CLR,SKC,0.00,WeatherDisplay:10.37,2013-03-05 13:47:00,
2013-03-05 08:52:00,46.0,28.4,30.03,SSE,157,5.8,5.8,50,0.00,CLR,SKC,0.00,WeatherDisplay:10.37,2013-03-05 13:52:00,
2013-03-05 08:57:00,47.0,27.8,30.03,SE,135,5.8,5.8,47,0.00,CLR,SKC,0.00,WeatherDisplay:10.37,2013-03-05 13:57:00,
2013-03-05 09:02:00,47.0,26.7,30.03,SSE,157,8.1,8.1,45,0.00,CLR,SKC,0.00,WeatherDisplay:10.37,2013-03-05 14:02:00,
2013-03-05 09:07:00,48.0,26.5,30.02,SSE,157,9.2,9.2,43,0.00,CLR,SKC,0.00,WeatherDisplay:10.37,2013-03-05 14:07:00,
2013-03-05 09:12:00,48.0,26.0,30.02,SE,135,9.2,9.2,42,0.00,CLR,SKC,0.00,WeatherDisplay:10.37,2013-03-05 14:12:00,
2013-03-05 09:17:00,48.0,26.5,30.02,SSE,157,5.8,5.8,43,0.00,CLR,SKC,0.00,WeatherDisplay:10.37,2013-03-05 14:17:00,
2013-03-05 09:22:00,48.0,26.5,30.02,SSE,157,6.9,6.9,43,0.00,CLR,SKC,0.00,WeatherDisplay:10.37,2013-03-05 14:22:00,
2013-03-05 09:27:00,48.0,26.5,30.02,SSE,157,5.8,5.8,43,0.00,CLR,SKC,0.00,WeatherDisplay:10.37,2013-03-05 14:27:00,
2013-03-05 09:32:00,48.0,26.5,30.02,SSE,157,6.9,6.9,43,0.00,CLR,SKC,0.00,WeatherDisplay:10.37,2013-03-05 14:32:00,
2013-03-05 09:37:00,48.0,26.5,30.02,SSE,157,6.9,6.9,43,0.00,CLR,SKC,0.00,WeatherDisplay:10.37,2013-03-05 14:37:00,
2013-03-05 09:42:00,48.0,27.6,30.02,SE,135,6.9,6.9,45,0.00,CLR,SKC,0.00,WeatherDisplay:10.37,2013-03-05 14:42:00,
2013-03-05 09:47:00,48.0,26.5,30.03,SSW,202,5.8,5.8,43,0.00,CLR,SKC,0.00,WeatherDisplay:10.37,2013-03-05 14:47:00,
2013-03-05 09:52:00,49.0,26.9,30.03,South,180,8.1,8.1,42,0.00,CLR,SKC,0.00,WeatherDisplay:10.37,2013-03-05 14:52:00,
2013-03-05 09:57:00,51.0,27.5,30.01,ESE,112,9.2,9.2,40,0.00,CLR,SKC,0.00,WeatherDisplay:10.37,2013-03-05 14:57:00,
2013-03-05 10:02:00,51.0,27.5,30.01,SSE,157,10.4,10.4,40,0.00,CLR,SKC,0.00,WeatherDisplay:10.37,2013-03-05 15:02:00,
2013-03-05 10:07:00,52.0,29.0,29.99,SE,135,5.8,5.8,41,0.00,CLR,SKC,0.00,WeatherDisplay:10.37,2013-03-05 15:07:00,
2013-03-05 10:12:00,52.0,29.0,29.99,SSE,157,10.4,10.4,41,0.00,CLR,SKC,0.00,WeatherDisplay:10.37,2013-03-05 15:12:00,
2013-03-05 10:17:00,53.0,29.9,29.98,South,180,5.8,5.8,41,0.00,CLR,SKC,0.00,WeatherDisplay:10.37,2013-03-05 15:17:00,
2013-03-05 10:22:00,52.0,29.6,29.98,SSW,202,4.0,4.0,42,0.00,CLR,SKC,0.00,WeatherDisplay:10.37,2013-03-05 15:22:00,
2013-03-05 10:27:00,52.0,30.2,29.98,SSW,202,8.1,8.1,43,0.00,CLR,SKC,0.00,WeatherDisplay:10.37,2013-03-05 15:27:00,
2013-03-05 10:32:00,51.0,29.3,29.98,South,180,10.4,10.4,43,0.00,CLR,SKC,0.00,WeatherDisplay:10.37,2013-03-05 15:32:00,
2013-03-05 10:37:00,51.0,29.8,29.99,South,180,6.9,6.9,44,0.00,CLR,SKC,0.00,WeatherDisplay:10.37,2013-03-05 15:37:00,
2013-03-05 10:42:00,51.0,29.8,29.99,SSW,202,5.8,5.8,44,0.00,CLR,SKC,0.00,WeatherDisplay:10.37,2013-03-05 15:42:00,
2013-03-05 10:47:00,50.0,29.5,29.99,SSE,157,6.9,6.9,45,0.00,CLR,SKC,0.00,WeatherDisplay:10.37,2013-03-05 15:47:00,
2013-03-05 10:52:00,51.0,30.4,29.99,South,180,6.0,6.0,45,0.00,CLR,SKC,0.00,WeatherDisplay:10.37,2013-03-05 15:52:00,
2013-03-05 10:57:00,51.0,30.9,29.99,South,180,3.5,3.5,46,0.00,CLR,SKC,0.00,WeatherDisplay:10.37,2013-03-05 15:57:00,
2013-03-05 11:02:00,51.0,30.9,29.99,SSW,202,5.0,5.0,46,0.00,CLR,SKC,0.00,WeatherDisplay:10.37,2013-03-05 16:02:00,
2013-03-05 11:07:00,50.0,30.5,29.99,SSE,157,4.0,4.0,47,0.00,CLR,SKC,0.00,WeatherDisplay:10.37,2013-03-05 16:07:00,
2013-03-05 11:12:00,50.0,30.5,29.99,South,180,6.9,6.9,47,0.00,CLR,SKC,0.00,WeatherDisplay:10.37,2013-03-05 16:12:00,
2013-03-05 11:17:00,50.0,31.1,29.99,South,180,3.5,3.5,48,0.00,CLR,SKC,0.00,WeatherDisplay:10.37,2013-03-05 16:17:00,
2013-03-05 11:22:00,50.0,31.1,29.99,South,180,3.5,3.5,48,0.00,CLR,SKC,0.00,WeatherDisplay:10.37,2013-03-05 16:22:00,
2013-03-05 11:27:00,50.0,31.1,29.99,South,180,2.3,2.3,48,0.00,CLR,SKC,0.00,WeatherDisplay:10.37,2013-03-05 16:27:00,
2013-03-05 11:32:00,50.0,31.6,29.99,South,180,2.3,2.3,49,0.00,CLR,SKC,0.00,WeatherDisplay:10.37,2013-03-05 16:32:00,
2013-03-05 11:37:00,49.0,30.7,29.99,SSW,202,3.5,3.5,49,0.00,CLR,SKC,0.00,WeatherDisplay:10.37,2013-03-05 16:37:00,
2013-03-05 11:42:00,49.0,31.6,29.99,SSW,202,3.5,3.5,51,0.00,CLR,SKC,0.00,WeatherDisplay:10.37,2013-03-05 16:42:00,
2013-03-05 11:47:00,49.0,31.2,29.99,South,180,3.5,3.5,50,0.00,CLR,SKC,0.00,WeatherDisplay:10.37,2013-03-05 16:47:00,
2013-03-05 11:52:00,49.0,31.6,29.99,South,180,3.5,3.5,51,0.00,CLR,SKC,0.00,WeatherDisplay:10.37,2013-03-05 16:52:00,
2013-03-05 11:57:00,49.0,32.1,29.99,South,180,3.5,3.5,52,0.00,CLR,SKC,0.00,WeatherDisplay:10.37,2013-03-05 16:57:00,
2013-03-05 12:02:00,50.0,32.6,29.99,SSW,202,6.9,6.9,51,0.00,CLR,SKC,0.00,WeatherDisplay:10.37,2013-03-05 17:02:00,
2013-03-05 12:07:00,50.0,32.6,29.98,South,180,4.0,4.0,51,0.00,CLR,SKC,0.00,WeatherDisplay:10.37,2013-03-05 17:07:00,
2013-03-05 12:13:00,50.0,33.1,29.98,SSW,202,3.5,3.5,52,0.00,CLR,SKC,0.00,WeatherDisplay:10.37,2013-03-05 17:13:00,
2013-03-05 12:18:00,50.0,33.1,29.97,SSW,202,4.6,4.6,52,0.00,CLR,SKC,0.00,WeatherDisplay:10.37,2013-03-05 17:18:00,
2013-03-05 12:23:00,50.0,33.1,29.97,SW,225,6.9,6.9,52,0.00,CLR,SKC,0.00,WeatherDisplay:10.37,2013-03-05 17:23:00,
2013-03-05 12:28:00,50.0,33.1,29.97,WSW,247,5.0,5.0,52,0.00,CLR,SKC,0.00,WeatherDisplay:10.37,2013-03-05 17:28:00,
2013-03-05 12:33:00,50.0,34.5,29.97,West,270,3.5,3.5,55,0.00,CLR,SKC,0.00,WeatherDisplay:10.37,2013-03-05 17:33:00,
2013-03-05 12:38:00,49.0,34.9,29.97,WSW,247,6.9,6.9,58,0.00,CLR,SKC,0.00,WeatherDisplay:10.37,2013-03-05 17:38:00,
2013-03-05 12:43:00,49.0,35.3,29.97,WSW,247,5.8,5.8,59,0.00,CLR,SKC,0.00,WeatherDisplay:10.37,2013-03-05 17:43:00,
2013-03-05 12:48:00,49.0,36.9,29.97,SW,225,4.6,4.6,63,0.00,CLR,SKC,0.00,WeatherDisplay:10.37,2013-03-05 17:48:00,
2013-03-05 12:53:00,48.0,39.8,29.97,WSW,247,10.4,10.4,73,0.00,CLR,SKC,0.00,WeatherDisplay:10.37,2013-03-05 17:53:00,
2013-03-05 12:58:00,47.0,40.5,29.97,SW,225,5.8,5.8,78,0.00,CLR,SKC,0.00,WeatherDisplay:10.37,2013-03-05 17:58:00,
2013-03-05 13:03:00,46.0,40.5,29.97,SW,225,3.5,3.5,81,0.00,CLR,SKC,0.00,WeatherDisplay:10.37,2013-03-05 18:03:00,
2013-03-05 13:08:00,46.0,42.0,29.97,SW,225,2.3,2.3,86,0.01,RA,SKC,0.01,WeatherDisplay:10.37,2013-03-05 18:08:00,
2013-03-05 13:13:00,45.0,42.2,29.97,SSE,157,0.0,0.0,90,0.02,RA,SKC,0.02,WeatherDisplay:10.37,2013-03-05 18:13:00,
2013-03-05 13:18:00,45.0,43.4,29.97,SSW,202,4.6,4.6,94,0.03,RA,SKC,0.03,WeatherDisplay:10.37,2013-03-05 18:18:00,
2013-03-05 13:23:00,45.0,44.5,29.97,South,180,3.5,3.5,98,0.04,RA,SKC,0.04,WeatherDisplay:10.37,2013-03-05 18:23:00,
2013-03-05 13:28:00,45.0,45.0,29.97,SSE,157,5.8,5.8,100,0.04,RA,SKC,0.04,WeatherDisplay:10.37,2013-03-05 18:28:00,
2013-03-05 13:33:00,44.0,44.0,29.97,SSE,157,6.0,6.0,100,0.06,RA,SKC,0.06,WeatherDisplay:10.37,2013-03-05 18:33:00,
2013-03-05 13:38:00,44.0,44.0,29.96,SSE,157,6.9,6.9,100,0.07,RA,SKC,0.07,WeatherDisplay:10.37,2013-03-05 18:38:00,
2013-03-05 13:43:00,44.0,44.0,29.96,SSE,157,6.0,6.0,100,0.08,RA,SKC,0.08,WeatherDisplay:10.37,2013-03-05 18:43:00,
2013-03-05 13:48:00,44.0,44.0,29.96,SSE,157,5.8,5.8,100,0.09,RA,SKC,0.09,WeatherDisplay:10.37,2013-03-05 18:48:00,
2013-03-05 13:53:00,44.0,44.0,29.96,SSE,157,6.9,6.9,100,0.10,RA,SKC,0.10,WeatherDisplay:10.37,2013-03-05 18:53:00,
2013-03-05 13:58:00,44.0,44.0,29.95,SSE,157,6.0,6.0,100,0.11,RA,SKC,0.11,WeatherDisplay:10.37,2013-03-05 18:58:00,
2013-03-05 14:04:00,44.0,44.0,29.95,SSE,157,5.8,5.8,100,0.12,RA,SKC,0.12,WeatherDisplay:10.37,2013-03-05 19:04:00,
2013-03-05 14:09:00,44.0,44.0,29.95,SSE,157,5.8,5.8,100,0.12,RA,SKC,0.13,WeatherDisplay:10.37,2013-03-05 19:09:00,
2013-03-05 14:14:00,44.0,44.0,29.95,SSE,157,8.1,8.1,100,0.11,RA,SKC,0.13,WeatherDisplay:10.37,2013-03-05 19:14:00,
2013-03-05 14:19:00,44.0,44.0,29.95,SSE,157,4.6,4.6,100,0.11,RA,SKC,0.14,WeatherDisplay:10.37,2013-03-05 19:19:00,
2013-03-05 14:24:00,44.0,44.0,29.95,SSE,157,3.5,3.5,100,0.10,RA,SKC,0.14,WeatherDisplay:10.37,2013-03-05 19:24:00,
2013-03-05 14:29:00,44.0,44.0,29.95,SSE,157,0.0,0.0,100,0.09,CLR,SKC,0.14,WeatherDisplay:10.37,2013-03-05 19:29:00,
2013-03-05 14:34:00,44.0,44.0,29.95,SSE,157,1.1,0.0,100,0.08,,SKC,0.14,WeatherDisplay:10.37,2013-03-05 19:34:00,
2013-03-05 14:39:00,44.0,44.0,29.95,SSE,157,0.0,0.0,100,0.08,RA,SKC,0.15,WeatherDisplay:10.37,2013-03-05 19:39:00,
2013-03-05 14:44:00,44.0,44.0,29.95,SSE,157,3.5,3.5,100,0.08,RA,SKC,0.16,WeatherDisplay:10.37,2013-03-05 19:44:00,
2013-03-05 14:49:00,44.0,44.0,29.95,SSE,157,5.8,5.8,100,0.08,RA,SKC,0.17,WeatherDisplay:10.37,2013-03-05 19:49:00,
2013-03-05 14:54:00,44.0,44.0,29.95,SSE,157,10.4,10.4,100,0.08,RA,SKC,0.18,WeatherDisplay:10.37,2013-03-05 19:54:00,
2013-03-05 14:59:00,44.0,44.0,29.93,SSE,157,8.1,8.1,100,0.06,RA,SKC,0.18,WeatherDisplay:10.37,2013-03-05 19:59:00,
2013-03-05 15:04:00,44.0,44.0,29.93,SSE,157,5.8,5.8,100,0.07,RA,SKC,0.19,WeatherDisplay:10.37,2013-03-05 20:04:00,
2013-03-05 15:09:00,44.0,44.0,29.93,SSE,157,4.6,4.6,100,0.07,RA,SKC,0.20,WeatherDisplay:10.37,2013-03-05 20:09:00,
2013-03-05 15:14:00,44.0,44.0,29.93,SSE,157,5.8,5.8,100,0.07,RA,SKC,0.20,WeatherDisplay:10.37,2013-03-05 20:14:00,
2013-03-05 15:19:00,44.0,44.0,29.92,SSE,157,5.8,5.8,100,0.07,RA,SKC,0.21,WeatherDisplay:10.37,2013-03-05 20:19:00,
2013-03-05 15:24:00,44.0,44.0,29.92,SSE,157,4.6,4.6,100,0.07,RA,SKC,0.21,WeatherDisplay:10.37,2013-03-05 20:24:00,
2013-03-05 15:29:00,44.0,44.0,29.92,SSE,157,3.5,3.5,100,0.07,,SKC,0.21,WeatherDisplay:10.37,2013-03-05 20:29:00,
2013-03-05 15:34:00,44.0,44.0,29.92,SSE,157,1.1,1.1,100,0.07,CLR,SKC,0.21,WeatherDisplay:10.37,2013-03-05 20:34:00,
2013-03-05 15:39:00,44.0,44.0,29.92,South,180,4.0,4.0,100,0.06,,SKC,0.21,WeatherDisplay:10.37,2013-03-05 20:39:00,
2013-03-05 15:44:00,44.0,44.0,29.92,SE,135,4.6,4.6,100,0.06,RA,SKC,0.22,WeatherDisplay:10.37,2013-03-05 20:44:00,
2013-03-05 15:49:00,44.0,44.0,29.91,SSE,157,3.5,3.5,100,0.05,RA,SKC,0.22,WeatherDisplay:10.37,2013-03-05 20:49:00,
2013-03-05 15:54:00,44.0,44.0,29.91,SSE,157,0.0,0.0,100,0.04,CLR,SKC,0.22,WeatherDisplay:10.37,2013-03-05 20:54:00,
2013-03-05 15:59:00,44.0,44.0,29.91,SSE,157,3.5,3.5,100,0.04,,SKC,0.22,WeatherDisplay:10.37,2013-03-05 20:59:00,
2013-03-05 16:04:00,44.0,44.0,29.91,SSE,157,3.5,3.5,100,0.03,,SKC,0.22,WeatherDisplay:10.37,2013-03-05 21:04:00,
2013-03-05 16:09:00,44.0,44.0,29.91,SSE,157,3.5,3.5,100,0.03,RA,SKC,0.23,WeatherDisplay:10.37,2013-03-05 21:09:00,
2013-03-05 16:14:00,44.0,44.0,29.91,SSE,157,3.5,3.5,100,0.04,RA,SKC,0.24,WeatherDisplay:10.37,2013-03-05 21:14:00,
2013-03-05 16:19:00,44.0,44.0,29.90,SSE,157,3.5,3.5,100,0.04,RA,SKC,0.25,WeatherDisplay:10.37,2013-03-05 21:19:00,
2013-03-05 16:24:00,44.0,44.0,29.90,SE,135,4.6,4.6,100,0.04,RA,SKC,0.25,WeatherDisplay:10.37,2013-03-05 21:24:00,
2013-03-05 16:29:00,44.0,44.0,29.89,SE,135,5.0,5.0,100,0.04,CLR,SKC,0.25,WeatherDisplay:10.37,2013-03-05 21:29:00,
2013-03-05 16:34:00,44.0,44.0,29.89,SE,135,6.0,6.0,100,0.05,RA,SKC,0.26,WeatherDisplay:10.37,2013-03-05 21:34:00,
2013-03-05 16:39:00,44.0,44.0,29.89,SSE,157,4.6,4.6,100,0.05,RA,SKC,0.26,WeatherDisplay:10.37,2013-03-05 21:39:00,
2013-03-05 16:44:00,44.0,44.0,29.89,ESE,112,3.5,3.5,100,0.04,,SKC,0.26,WeatherDisplay:10.37,2013-03-05 21:44:00,
2013-03-05 16:49:00,44.0,44.0,29.90,ESE,112,4.0,4.0,100,0.04,CLR,SKC,0.26,WeatherDisplay:10.37,2013-03-05 21:49:00,
2013-03-05 16:54:00,44.0,44.0,29.90,ESE,112,3.5,3.5,100,0.04,,SKC,0.26,WeatherDisplay:10.37,2013-03-05 21:54:00,
2013-03-05 16:59:00,44.0,44.0,29.90,ESE,112,3.5,3.5,100,0.05,RA,SKC,0.27,WeatherDisplay:10.37,2013-03-05 21:59:00,
2013-03-05 17:04:00,44.0,44.0,29.90,ENE,67,3.5,3.5,100,0.06,RA,SKC,0.28,WeatherDisplay:10.37,2013-03-05 22:04:00,
2013-03-05 17:09:00,44.0,44.0,29.90,ESE,112,3.5,3.5,100,0.05,RA,SKC,0.28,WeatherDisplay:10.37,2013-03-05 22:09:00,
2013-03-05 17:14:00,44.0,44.0,29.90,ESE,112,3.5,3.5,100,0.05,RA,SKC,0.29,WeatherDisplay:10.37,2013-03-05 22:14:00,
2013-03-05 17:19:00,44.0,44.0,29.89,ESE,112,3.5,3.5,100,0.05,RA,SKC,0.30,WeatherDisplay:10.37,2013-03-05 22:19:00,
2013-03-05 17:24:00,44.0,44.0,29.89,ESE,112,3.5,3.5,100,0.05,RA,SKC,0.30,WeatherDisplay:10.37,2013-03-05 22:24:00,
2013-03-05 17:29:00,44.0,44.0,29.89,ESE,112,4.6,4.6,100,0.05,CLR,SKC,0.30,WeatherDisplay:10.37,2013-03-05 22:29:00,
2013-03-05 17:34:00,44.0,44.0,29.89,SE,135,3.5,3.5,100,0.05,RA,SKC,0.31,WeatherDisplay:10.37,2013-03-05 22:34:00,
2013-03-05 17:39:00,44.0,44.0,29.89,ESE,112,4.6,4.6,100,0.05,RA,SKC,0.31,WeatherDisplay:10.37,2013-03-05 22:39:00,
2013-03-05 17:44:00,44.0,44.0,29.89,ESE,112,3.5,3.5,100,0.05,,SKC,0.31,WeatherDisplay:10.37,2013-03-05 22:44:00,
2013-03-05 17:49:00,44.0,44.0,29.87,East,90,5.8,5.8,100,0.05,CLR,SKC,0.31,WeatherDisplay:10.37,2013-03-05 22:49:00,
2013-03-05 17:54:00,44.0,44.0,29.87,ESE,112,3.5,3.5,100,0.05,,SKC,0.31,WeatherDisplay:10.37,2013-03-05 22:54:00,
2013-03-05 17:59:00,43.0,43.0,29.87,East,90,6.9,6.9,100,0.04,,SKC,0.31,WeatherDisplay:10.37,2013-03-05 22:59:00,
2013-03-05 18:04:00,43.0,43.0,29.87,ESE,112,6.9,6.9,100,0.03,,SKC,0.31,WeatherDisplay:10.37,2013-03-05 23:04:00,
2013-03-05 18:09:00,43.0,43.0,29.87,ESE,112,6.0,6.0,100,0.03,,SKC,0.31,WeatherDisplay:10.37,2013-03-05 23:09:00,
2013-03-05 18:14:00,43.0,43.0,29.87,SE,135,8.1,8.1,100,0.02,,SKC,0.31,WeatherDisplay:10.37,2013-03-05 23:14:00,
2013-03-05 18:19:00,43.0,43.0,29.87,SE,135,8.1,8.1,100,0.01,,SKC,0.31,WeatherDisplay:10.37,2013-03-05 23:19:00,
2013-03-05 18:24:00,43.0,43.0,29.87,ESE,112,6.9,6.9,100,0.01,,SKC,0.31,WeatherDisplay:10.37,2013-03-05 23:24:00,
2013-03-05 18:29:00,43.0,43.0,29.86,ESE,112,6.0,6.0,100,0.01,,SKC,0.31,WeatherDisplay:10.37,2013-03-05 23:29:00,
2013-03-05 18:34:00,43.0,43.0,29.86,East,90,5.0,5.0,100,0.00,,SKC,0.31,WeatherDisplay:10.37,2013-03-05 23:34:00,
2013-03-05 18:39:00,43.0,43.0,29.86,ESE,112,10.4,10.4,100,0.01,RA,SKC,0.32,WeatherDisplay:10.37,2013-03-05 23:39:00,
2013-03-05 18:44:00,43.0,43.0,29.86,SE,135,9.2,9.2,100,0.01,RA,SKC,0.32,WeatherDisplay:10.37,2013-03-05 23:44:00,
2013-03-05 18:49:00,43.0,43.0,29.85,ENE,67,8.1,8.1,100,0.01,CLR,SKC,0.32,WeatherDisplay:10.37,2013-03-05 23:49:00,
2013-03-05 18:54:00,43.0,43.0,29.85,ESE,112,6.9,6.9,100,0.01,,SKC,0.32,WeatherDisplay:10.37,2013-03-05 23:54:00,
2013-03-05 18:59:00,43.0,43.0,29.84,East,90,8.1,8.1,100,0.01,,SKC,0.32,WeatherDisplay:10.37,2013-03-05 23:59:00,
2013-03-05 19:04:00,43.0,43.0,29.84,ESE,112,10.4,10.4,100,0.01,,SKC,0.32,WeatherDisplay:10.37,2013-03-06 00:04:00,
2013-03-05 19:09:00,43.0,43.0,29.83,East,90,5.0,5.0,100,0.01,,SKC,0.32,WeatherDisplay:10.37,2013-03-06 00:09:00,
2013-03-05 19:14:00,43.0,43.0,29.83,ENE,67,11.5,11.5,100,0.01,,SKC,0.32,WeatherDisplay:10.37,2013-03-06 00:14:00,
2013-03-05 19:19:00,43.0,43.0,29.83,East,90,11.0,11.0,100,0.01,CLR,SKC,0.32,WeatherDisplay:10.37,2013-03-06 00:19:00,
2013-03-05 19:24:00,43.0,43.0,29.83,NE,45,10.4,10.4,100,0.01,CLR,SKC,0.32,WeatherDisplay:10.37,2013-03-06 00:24:00,
2013-03-05 19:29:00,43.0,43.0,29.81,SE,135,8.1,8.1,100,0.01,CLR,SKC,0.32,WeatherDisplay:10.37,2013-03-06 00:29:00,
2013-03-05 19:34:00,43.0,43.0,29.81,ESE,112,6.9,6.9,100,0.01,,SKC,0.32,WeatherDisplay:10.37,2013-03-06 00:34:00,
2013-03-05 19:39:00,43.0,43.0,29.81,ESE,112,11.0,11.0,100,0.00,,SKC,0.32,WeatherDisplay:10.37,2013-03-06 00:39:00,
2013-03-05 19:44:00,43.0,43.0,29.81,ENE,67,15.0,15.0,100,0.00,,SKC,0.32,WeatherDisplay:10.37,2013-03-06 00:44:00,
2013-03-05 19:49:00,43.0,43.0,29.80,NE,45,8.1,8.1,100,0.00,CLR,SKC,0.32,WeatherDisplay:10.37,2013-03-06 00:49:00,
2013-03-05 19:54:00,43.0,43.0,29.80,East,90,10.4,10.4,100,0.00,CLR,SKC,0.32,WeatherDisplay:10.37,2013-03-06 00:54:00,
2013-03-05 19:59:00,43.0,43.0,29.79,SSE,157,10.4,10.4,100,0.00,CLR,SKC,0.32,WeatherDisplay:10.37,2013-03-06 00:59:00,
2013-03-05 20:04:00,43.0,43.0,29.79,South,180,6.9,6.9,100,0.00,CLR,SKC,0.32,WeatherDisplay:10.37,2013-03-06 01:04:00,
2013-03-05 20:09:00,43.0,43.0,29.78,SSE,157,9.0,9.0,100,0.00,,SKC,0.32,WeatherDisplay:10.37,2013-03-06 01:09:00,
2013-03-05 20:14:00,42.0,42.0,29.78,ESE,112,8.0,8.0,100,0.00,CLR,SKC,0.32,WeatherDisplay:10.37,2013-03-06 01:14:00,
2013-03-05 20:19:00,42.0,42.0,29.77,ESE,112,9.2,9.2,100,0.00,CLR,SKC,0.32,WeatherDisplay:10.37,2013-03-06 01:19:00,
2013-03-05 20:24:00,42.0,42.0,29.77,East,90,11.0,11.0,100,0.00,CLR,SKC,0.32,WeatherDisplay:10.37,2013-03-06 01:24:00,
2013-03-05 20:29:00,42.0,42.0,29.75,ESE,112,10.4,10.4,100,0.00,CLR,SKC,0.32,WeatherDisplay:10.37,2013-03-06 01:29:00,
2013-03-05 20:34:00,41.0,41.0,29.75,SE,135,12.0,12.0,100,0.00,CLR,SKC,0.32,WeatherDisplay:10.37,2013-03-06 01:34:00,
2013-03-05 20:39:00,41.0,41.0,29.75,SE,135,10.4,10.4,100,0.00,CLR,SKC,0.32,WeatherDisplay:10.37,2013-03-06 01:39:00,
2013-03-05 20:44:00,41.0,41.0,29.75,ESE,112,13.8,13.8,100,0.00,CLR,SKC,0.32,WeatherDisplay:10.37,2013-03-06 01:44:00,
2013-03-05 20:49:00,41.0,41.0,29.75,ENE,67,13.8,13.8,100,0.00,CLR,SKC,0.32,WeatherDisplay:10.37,2013-03-06 01:49:00,
2013-03-05 20:54:00,41.0,41.0,29.75,ESE,112,11.5,11.5,100,0.00,CLR,SKC,0.32,WeatherDisplay:10.37,2013-03-06 01:54:00,
2013-03-05 20:59:00,41.0,41.0,29.73,ESE,112,11.5,11.5,100,0.00,CLR,SKC,0.32,WeatherDisplay:10.37,2013-03-06 01:59:00,
2013-03-05 21:04:00,41.0,41.0,29.73,East,90,11.0,11.0,100,0.00,CLR,SKC,0.32,WeatherDisplay:10.37,2013-03-06 02:04:00,
2013-03-05 21:09:00,41.0,41.0,29.72,ESE,112,11.0,11.0,100,0.00,CLR,SKC,0.32,WeatherDisplay:10.37,2013-03-06 02:09:00,
2013-03-05 21:14:00,41.0,41.0,29.72,ENE,67,12.7,12.7,100,0.00,CLR,SKC,0.32,WeatherDisplay:10.37,2013-03-06 02:14:00,
2013-03-05 21:19:00,41.0,41.0,29.73,SE,135,10.4,10.4,100,0.00,CLR,SKC,0.32,WeatherDisplay:10.37,2013-03-06 02:19:00,
2013-03-05 21:24:00,41.0,41.0,29.73,ESE,112,11.5,11.5,100,0.00,CLR,SKC,0.33,WeatherDisplay:10.37,2013-03-06 02:24:00,
2013-03-05 21:29:00,40.0,40.0,29.73,ESE,112,8.1,8.1,100,0.01,RA,SKC,0.33,WeatherDisplay:10.37,2013-03-06 02:29:00,
2013-03-05 21:34:00,40.0,40.0,29.73,ESE,112,10.4,10.4,100,0.01,RA,SKC,0.33,WeatherDisplay:10.37,2013-03-06 02:34:00,
2013-03-05 21:39:00,40.0,40.0,29.72,SSE,157,10.4,10.4,100,0.01,CLR,SKC,0.33,WeatherDisplay:10.37,2013-03-06 02:39:00,
2013-03-05 21:44:00,40.0,40.0,29.72,SE,135,13.8,13.8,100,0.01,CLR,SKC,0.33,WeatherDisplay:10.37,2013-03-06 02:44:00,
2013-03-05 21:49:00,40.0,40.0,29.71,SSE,157,11.5,11.5,100,0.02,RA,SKC,0.34,WeatherDisplay:10.37,2013-03-06 02:49:00,
2013-03-05 21:54:00,40.0,40.0,29.71,ESE,112,11.5,11.5,100,0.02,RA,SKC,0.34,WeatherDisplay:10.37,2013-03-06 02:54:00,
2013-03-05 21:59:00,40.0,40.0,29.70,SE,135,15.0,15.0,100,0.02,,SKC,0.34,WeatherDisplay:10.37,2013-03-06 02:59:00,
2013-03-05 22:04:00,40.0,40.0,29.70,SE,135,12.7,12.7,100,0.02,CLR,SKC,0.35,WeatherDisplay:10.37,2013-03-06 03:04:00,
2013-03-05 22:09:00,40.0,40.0,29.70,ESE,112,11.5,11.5,100,0.04,RA,SKC,0.36,WeatherDisplay:10.37,2013-03-06 03:09:00,
2013-03-05 22:14:00,39.0,39.0,29.70,ESE,112,9.2,9.2,100,0.04,RA,SKC,0.37,WeatherDisplay:10.37,2013-03-06 03:14:00,
2013-03-05 22:19:00,39.0,39.0,29.70,ESE,112,11.5,11.5,100,0.06,RA,SKC,0.38,WeatherDisplay:10.37,2013-03-06 03:19:00,
2013-03-05 22:24:00,39.0,39.0,29.70,East,90,11.5,11.5,100,0.07,RA,SKC,0.39,WeatherDisplay:10.37,2013-03-06 03:24:00,
2013-03-05 22:29:00,39.0,39.0,29.69,ENE,67,10.0,10.0,100,0.07,RA,SKC,0.40,WeatherDisplay:10.37,2013-03-06 03:29:00,
2013-03-05 22:34:00,39.0,39.0,29.69,East,90,12.0,12.0,100,0.09,RA,SKC,0.42,WeatherDisplay:10.37,2013-03-06 03:34:00,
2013-03-05 22:39:00,39.0,39.0,29.68,ESE,112,9.2,9.2,100,0.10,RA,SKC,0.43,WeatherDisplay:10.37,2013-03-06 03:39:00,
2013-03-05 22:44:00,39.0,39.0,29.68,ESE,112,9.2,9.2,100,0.11,RA,SKC,0.44,WeatherDisplay:10.37,2013-03-06 03:44:00,
2013-03-05 22:49:00,39.0,39.0,29.67,ESE,112,8.1,8.1,100,0.12,RA,SKC,0.46,WeatherDisplay:10.37,2013-03-06 03:49:00,
2013-03-05 22:54:00,39.0,39.0,29.67,ESE,112,10.4,10.4,100,0.13,RA,SKC,0.47,WeatherDisplay:10.37,2013-03-06 03:54:00,
2013-03-05 22:59:00,38.0,38.0,29.68,East,90,9.0,9.0,100,0.14,RA,SKC,0.49,WeatherDisplay:10.37,2013-03-06 03:59:00,
2013-03-05 23:04:00,38.0,38.0,29.68,ESE,112,10.4,10.4,100,0.16,RA,SKC,0.50,WeatherDisplay:10.37,2013-03-06 04:04:00,
2013-03-05 23:09:00,38.0,38.0,29.67,East,90,6.9,6.9,100,0.15,RA,SKC,0.51,WeatherDisplay:10.37,2013-03-06 04:09:00,
2013-03-05 23:14:00,38.0,38.0,29.67,SSE,157,10.4,10.4,100,0.16,RA,SKC,0.52,WeatherDisplay:10.37,2013-03-06 04:14:00,
2013-03-05 23:19:00,38.0,38.0,29.66,ESE,112,9.2,9.2,100,0.16,RA,SKC,0.54,WeatherDisplay:10.37,2013-03-06 04:19:00,
2013-03-05 23:24:00,38.0,38.0,29.66,East,90,9.0,9.0,100,0.16,RA,SKC,0.55,WeatherDisplay:10.37,2013-03-06 04:24:00,
2013-03-05 23:29:00,38.0,38.0,29.66,SE,135,5.8,5.8,100,0.16,RA,SKC,0.56,WeatherDisplay:10.37,2013-03-06 04:29:00,
2013-03-05 23:34:00,38.0,38.0,29.66,East,90,8.1,8.1,100,0.15,RA,SKC,0.57,WeatherDisplay:10.37,2013-03-06 04:34:00,
2013-03-05 23:39:00,38.0,38.0,29.65,East,90,11.5,11.5,100,0.15,RA,SKC,0.58,WeatherDisplay:10.37,2013-03-06 04:39:00,
2013-03-05 23:44:00,38.0,38.0,29.65,ENE,67,11.5,11.5,100,0.15,RA,SKC,0.59,WeatherDisplay:10.37,2013-03-06 04:44:00,
2013-03-05 23:49:00,38.0,38.0,29.63,ESE,112,12.7,12.7,100,0.14,RA,SKC,0.60,WeatherDisplay:10.37,2013-03-06 04:49:00,
2013-03-05 23:54:00,38.0,38.0,29.63,ESE,112,6.9,6.9,100,0.14,RA,SKC,0.61,WeatherDisplay:10.37,2013-03-06 04:54:00,
2013-03-05 23:59:00,38.0,38.0,29.63,ESE,112,6.0,6.0,100,0.14,RA,SKC,0.62,WeatherDisplay:10.37,2013-03-06 04:59:00,